Location: Miles
(41.4492°N, 81.6087°W)
Time: 23:09:33
(UTC+00:00)

Vanguard 1 Rocket - Visible Passes

Search period start: 13 January 2026 00:00
Search period end: 23 January 2026 00:00
Orbit: 651 x 4216 km, 34.3° (Epoch: 13 January)

Date Brightness Start Highest point End Pass type
(mag) Time Alt. Az. Time Alt. Az. Time Alt. Az.
13 Jan 10.7 00:59:10 10° SSW 01:20:16 34° SE 01:23:34 33° SE visible
13 Jan 10.8 03:26:53 10° SW 03:40:45 38° SW 03:40:45 38° SW visible
13 Jan 11.0 23:47:31 10° S 00:05:23 24° SE 00:15:24 18° ESE visible
14 Jan 10.4 02:11:23 10° SW 02:32:36 48° S 02:32:36 48° S visible
14 Jan 11.2 04:42:43 10° WSW 04:49:47 24° WSW 04:49:47 24° WSW visible
14 Jan 11.4 22:39:44 10° SSE 22:50:49 15° SE 23:01:22 10° ESE visible
15 Jan 10.6 00:57:14 10° SSW 01:19:53 40° SSE 01:24:25 37° SE visible
15 Jan 10.7 03:26:02 10° WSW 03:41:37 44° SW 03:41:37 44° SW visible
15 Jan 10.9 23:44:49 10° S 00:04:48 30° SE 00:16:14 20° ESE visible
16 Jan 10.3 02:10:14 10° SW 02:33:25 55° S 02:33:25 55° S visible
16 Jan 11.2 04:42:13 10° WSW 04:50:37 27° WSW 04:50:37 27° WSW visible
16 Jan 11.3 22:34:58 10° SSE 22:50:07 20° SE 23:04:39 10° E visible
17 Jan 10.5 00:55:43 10° SSW 01:19:26 46° SSE 01:25:14 41° ESE visible
17 Jan 10.6 03:25:21 10° WSW 03:42:25 48° SW 03:42:25 48° SW visible
17 Jan 11.6 05:59:05 10° W 05:59:36 11° W 05:59:36 11° W visible
17 Jan 10.9 23:42:45 10° SSW 00:04:08 36° SE 00:17:01 22° E visible
18 Jan 10.2 02:09:20 10° SW 02:34:12 60° SSE 02:34:12 60° SSE visible
18 Jan 11.1 04:41:48 10° W 04:51:23 29° WSW 04:51:23 29° WSW visible
18 Jan 11.3 22:31:48 10° S 22:49:20 25° SE 23:06:31 10° E visible
19 Jan 10.4 00:54:32 10° SW 01:18:57 52° SSE 01:25:57 43° ESE visible
19 Jan 10.5 03:24:49 10° WSW 03:43:08 53° SW 03:43:08 53° SW visible
19 Jan 11.6 05:58:46 10° W 06:00:19 13° W 06:00:19 13° W visible
19 Jan 10.8 23:41:10 10° SSW 00:03:27 42° SE 00:17:42 23° E visible
20 Jan 10.2 02:08:38 10° WSW 02:34:22 65° SSE 02:34:52 65° SSE visible
20 Jan 11.0 04:41:25 10° W 04:52:03 32° W 04:52:03 32° W visible
20 Jan 11.3 22:29:30 10° S 22:48:27 30° SE 23:07:40 10° E visible
21 Jan 10.4 00:53:37 10° SW 01:18:29 57° SSE 01:26:35 44° ESE visible
21 Jan 10.4 03:24:23 10° WSW 03:43:46 56° SW 03:43:46 56° SW visible
21 Jan 11.6 05:58:28 10° W 06:00:56 14° W 06:00:56 14° W visible
21 Jan 10.8 23:39:57 10° SSW 00:02:44 47° SSE 00:18:17 23° E visible
22 Jan 10.2 02:08:07 10° WSW 02:34:07 68° S 02:35:27 67° SSE visible
22 Jan 11.0 04:41:05 10° W 04:52:37 34° W 04:52:37 34° W visible
22 Jan 11.2 22:27:48 10° SSW 22:47:33 36° SE 23:08:24 10° E visible
